CST,Max TemperatureF,Mean TemperatureF,Min TemperatureF,Max Dew PointF,MeanDew PointF,Min DewpointF,Max Humidity, Mean Humidity, Min Humidity, Max Sea Level PressureIn, Mean Sea Level PressureIn, Min Sea Level PressureIn, Max VisibilityMiles, Mean VisibilityMiles, Min VisibilityMiles, Max Wind SpeedMPH, Mean Wind SpeedMPH, Max Gust SpeedMPH,PrecipitationIn, CloudCover, Events, WindDirDegrees
2013-12-1,52,38,23,34,29,23,92,68,44,30.14,30.07,29.94,10,9,4,8,3,10,0.00,1,,17
2013-12-2,48,40,31,40,35,29,92,79,66,29.94,29.79,29.70,7,5,3,13,6,15,0.00,4,,112
2013-12-3,53,47,41,49,45,39,100,92,83,29.71,29.68,29.62,7,2,0,17,9,23,0.00,4,Fog,164
2013-12-4,60,49,38,54,47,32,100,89,78,29.84,29.67,29.50,10,5,0,24,11,30,0.00,7,Fog,182
2013-12-5,37,29,21,28,16,10,82,71,59,30.32,30.14,29.87,10,10,10,22,13,29,T,6,,305
2013-12-6,22,17,12,10,7,3,67,59,51,30.63,30.45,30.32,10,10,10,16,10,21,0.00,6,,339
2013-12-7,24,16,7,6,3,0,80,60,39,30.75,30.66,30.54,10,10,10,13,7,17,0.00,0,,7
2013-12-8,26,21,16,25,20,6,92,77,61,30.50,30.12,30.01,10,5,1,16,9,21,0.06,8,Rain-Snow,136
2013-12-9,25,20,14,21,13,6,88,74,60,30.32,30.23,30.04,10,10,7,21,11,26,T,4,,281
2013-12-10,30,17,4,14,8,2,80,62,43,30.34,30.27,30.19,10,10,10,24,8,32,0.00,0,,253
2013-12-11,27,15,3,17,8,-6,84,64,44,30.68,30.49,30.29,10,10,10,23,10,29,0.00,2,,302
2013-12-12,36,19,1,13,5,-4,79,57,35,30.64,30.46,30.27,10,10,10,18,8,23,0.00,0,,207
2013-12-13,39,30,20,31,26,13,92,66,40,30.25,30.08,30.01,10,4,0,13,8,17,0.42,6,Fog-Rain-Snow,145
2013-12-14,33,28,23,31,28,18,92,87,81,30.12,29.96,29.88,10,3,0,18,10,25,0.36,8,Fog-Snow,24
2013-12-15,24,20,15,20,15,10,92,83,73,30.19,30.14,30.10,10,8,3,17,9,22,T,7,Snow,275
2013-12-16,25,21,17,22,19,13,96,88,80,30.14,30.09,30.02,10,4,0,16,7,18,0.00,8,Fog,16
2013-12-17,35,25,15,28,21,7,96,77,58,30.26,30.16,30.10,10,5,0,16,9,22,0.07,5,Fog-Snow,265
2013-12-18,40,23,6,31,19,4,83,65,47,30.27,30.09,29.92,10,10,10,29,15,37,0.00,0,,192
2013-12-19,49,44,39,45,38,32,89,80,70,29.94,29.87,29.78,10,10,10,20,14,25,0.00,4,,183
2013-12-20,62,47,31,55,44,28,100,92,84,29.88,29.77,29.69,10,8,1,20,11,24,0.01,8,Rain,242
2013-12-21,33,32,30,32,29,27,92,91,89,29.87,29.75,29.59,10,7,2,18,9,21,0.64,8,Rain,1
2013-12-22,33,27,21,32,27,17,92,87,81,30.27,29.95,29.62,10,8,3,20,11,24,0.04,8,Rain-Snow,287
2013-12-23,22,14,6,16,10,-2,84,75,66,30.60,30.47,30.29,10,10,10,20,12,24,T,4,,288
2013-12-24,22,12,2,11,2,-5,76,64,52,30.66,30.54,30.38,10,10,10,22,9,28,0.00,2,,212
2013-12-25,32,27,22,28,22,12,92,77,62,30.37,30.28,30.20,10,9,5,20,10,25,T,8,Snow,229
2013-12-26,43,30,16,27,24,16,92,73,53,30.37,30.30,30.24,10,10,10,17,9,23,0.00,2,,221
2013-12-27,48,37,25,32,27,21,81,66,50,30.37,30.29,30.20,10,10,10,17,7,22,0.00,0,,211
2013-12-28,55,46,36,32,30,28,75,58,41,30.21,30.08,29.91,10,10,10,18,11,23,0.00,0,,200
2013-12-29,38,24,9,30,19,2,92,81,70,30.31,30.06,29.85,10,10,6,24,15,31,0.00,5,,296
2013-12-30,22,12,2,9,1,-3,87,66,45,30.40,30.31,30.22,10,10,10,16,4,21,0.00,3,,261
2013-12-31,33,24,15,21,15,10,84,68,51,30.41,30.28,30.19,10,10,10,13,7,16,0.00,2,,278